Viroqua, WI

9:18 PM CDT on August 31, 2016 (GMT -0500)
Viroqua

Weather History for KY51 - November, 2013

Change the Weather History Date:

Friday, November 29, 2013

  Actual Average (KLSE) Record (KLSE)
Temperature  
Mean Temperature 22 °F 28 °F  
Max Temperature 30 °F 36 °F 65 °F (1998)
Min Temperature 15 °F 21 °F -21 °F (1875)
Degree Days  
Heating Degree Days 42 37  
Month to date heating degree days 835  
Since 1 July heating degree days 1463  
Cooling Degree Days 0 0  
Month to date cooling degree days 0  
Year to date cooling degree days 782  
Moisture  
Dew Point 16 °F    
Average Humidity 72    
Maximum Humidity 85    
Minimum Humidity 59    
Precipitation  
Precipitation 0.00 in 0.07 in 0.52 in (1913)
Month to date precipitation 1.95  
Year to date precipitation 31.64  
Snow  
Snow 0.00 in 0.20 in 6.00 in (1988)
Month to date snowfall 3.8  
Since 1 July snowfall 4.0  
Snow Depth -    
Sea Level Pressure  
Sea Level Pressure 30.42 in    
Wind  
Wind Speed 7 mph (SE)    
Max Wind Speed 15 mph    
Max Gust Speed 20 mph    
Visibility 10 miles    
Events      
T = Trace of Precipitation, MM = Missing Value Source: NWS Daily Summary

Daily Weather History Graph

Daily Weather History Graph

Search for Another Location

Airport or City:

Trip Planner

Search our weather history database for the weather conditions in past years. The results will help you decide how hot, cold, wet, or windy it might be!

Date:

Astronomy

Nov. 29, 2013 Rise Set
Actual Time 7:15 AM CST 4:28 PM CST
Civil Twilight 6:42 AM CST 5:00 PM CST
Nautical Twilight 6:07 AM CST 5:36 PM CST
Astronomical Twilight 5:32 AM CST 6:10 PM CST
Moon 3:14 AM CST (11/29) 2:18 PM CST (11/29)
Length of Visible Light 10h 17m
Length of Day
9h 13m
Waning Crescent, 14% of the Moon is Illuminated
Nov 29
Waning Crescent
Dec 2
New
Dec 9
First Quarter
Dec 17
Full
Dec 25
Last Quarter

Hourly Weather History & Observations

Time (CST) Temp. Windchill Dew Point Humidity Pressure Visibility Wind Dir Wind Speed Gust Speed Precip Events Conditions
12:15 AM 19.2 °F 11.3 °F 12.9 °F 76% 30.46 in 10.0 mi NNE 5.8 mph - N/A   Scattered Clouds
12:35 AM 18.5 °F 11.7 °F 12.7 °F 78% 30.46 in 10.0 mi NNE 4.6 mph - N/A   Clear
12:55 AM 19.0 °F 13.9 °F 12.6 °F 76% 30.47 in 10.0 mi NNE 3.5 mph - N/A   Clear
1:15 AM 18.5 °F 11.7 °F 12.2 °F 76% 30.47 in 10.0 mi NE 4.6 mph - N/A   Clear
1:35 AM 17.6 °F 12.3 °F 11.5 °F 77% 30.46 in 10.0 mi ENE 3.5 mph - N/A   Clear
1:55 AM 17.2 °F 11.9 °F 11.1 °F 77% 30.47 in 10.0 mi NE 3.5 mph - N/A   Clear
2:15 AM 18.0 °F - 11.3 °F 75% 30.48 in 10.0 mi Calm Calm - N/A   Clear
2:35 AM 17.6 °F - 11.3 °F 76% 30.48 in 10.0 mi Calm Calm - N/A   Clear
2:55 AM 18.1 °F - 11.3 °F 75% 30.49 in 10.0 mi Calm Calm - N/A   Clear
3:15 AM 17.6 °F 12.3 °F 11.1 °F 76% 30.49 in 10.0 mi East 3.5 mph - N/A   Clear
3:35 AM 16.7 °F 9.6 °F 10.6 °F 77% 30.48 in 10.0 mi East 4.6 mph - N/A   Clear
3:55 AM 17.6 °F 12.3 °F 11.1 °F 76% 30.49 in 10.0 mi East 3.5 mph - N/A   Clear
4:15 AM 17.6 °F 10.7 °F 10.9 °F 75% 30.49 in 10.0 mi ESE 4.6 mph - N/A   Clear
4:35 AM 16.7 °F 9.6 °F 10.4 °F 76% 30.49 in 10.0 mi SE 4.6 mph - N/A   Clear
4:55 AM 15.4 °F 5.6 °F 10.0 °F 79% 30.50 in 10.0 mi ESE 6.9 mph - N/A   Clear
5:15 AM 15.1 °F 5.2 °F 10.4 °F 82% 30.50 in 10.0 mi ESE 6.9 mph - N/A   Clear
5:35 AM 15.8 °F 6.1 °F 10.9 °F 81% 30.50 in 10.0 mi ESE 6.9 mph - N/A   Clear
5:55 AM 16.9 °F 7.4 °F 12.2 °F 82% 30.50 in 10.0 mi ESE 6.9 mph - N/A   Clear
6:15 AM 15.4 °F 6.8 °F 11.3 °F 84% 30.51 in 10.0 mi ESE 5.8 mph - N/A   Clear
6:35 AM 16.3 °F 6.7 °F 12.2 °F 84% 30.51 in 10.0 mi ESE 6.9 mph - N/A   Clear
6:55 AM 16.7 °F 6.2 °F 12.9 °F 85% 30.51 in 10.0 mi ESE 8.1 mph - N/A   Clear
7:15 AM 17.1 °F 7.6 °F 12.9 °F 84% 30.51 in 10.0 mi ESE 6.9 mph - N/A   Clear
7:35 AM 16.9 °F 6.4 °F 12.9 °F 84% 30.52 in 10.0 mi ESE 8.1 mph - N/A   Clear
7:55 AM 17.6 °F 7.3 °F 13.1 °F 83% 30.52 in 10.0 mi ESE 8.1 mph - N/A   Clear
8:15 AM 18.1 °F 7.9 °F 13.8 °F 83% 30.53 in 10.0 mi SE 8.1 mph - N/A   Clear
8:35 AM 18.5 °F 8.4 °F 14.0 °F 83% 30.53 in 10.0 mi SE 8.1 mph - N/A   Clear
8:55 AM 19.2 °F 7.7 °F 14.9 °F 83% 30.52 in 10.0 mi SE 10.4 mph - N/A   Clear
9:15 AM 20.5 °F 10.0 °F 15.6 °F 81% 30.52 in 10.0 mi SSE 9.2 mph - N/A   Clear
9:35 AM 21.7 °F 11.5 °F 15.8 °F 78% 30.52 in 10.0 mi SSE 9.2 mph - N/A   Clear
9:55 AM 23.9 °F 15.0 °F 16.0 °F 72% 30.52 in 10.0 mi SSE 8.1 mph - N/A   Clear
10:15 AM 25.3 °F 13.6 °F 16.2 °F 68% 30.52 in 10.0 mi South 13.8 mph 19.6 mph N/A   Clear
10:35 AM 25.0 °F 15.5 °F 15.3 °F 67% 30.52 in 10.0 mi South 9.2 mph - N/A   Clear
10:55 AM 24.8 °F 12.4 °F 14.9 °F 66% 30.51 in 10.0 mi South 15.0 mph - N/A   Clear
11:15 AM 25.3 °F 14.1 °F 15.6 °F 67% 30.50 in 10.0 mi SSE 12.7 mph - N/A   Clear
11:35 AM 27.7 °F 19.6 °F 16.5 °F 63% 30.49 in 10.0 mi South 8.1 mph 16.1 mph N/A   Clear
11:55 AM 29.3 °F 20.8 °F 17.1 °F 60% 30.49 in 10.0 mi South 9.2 mph 17.3 mph N/A   Clear
12:15 PM 29.3 °F 19.6 °F 16.7 °F 59% 30.47 in 10.0 mi South 11.5 mph 16.1 mph N/A   Clear
12:35 PM 28.9 °F 19.2 °F 16.7 °F 60% 30.46 in 10.0 mi South 11.5 mph - N/A   Clear
12:55 PM 28.9 °F 19.2 °F 16.5 °F 60% 30.46 in 10.0 mi South 11.5 mph 17.3 mph N/A   Clear
1:15 PM 30.0 °F 22.4 °F 17.1 °F 59% 30.44 in 10.0 mi South 8.1 mph - N/A   Clear
1:35 PM 29.7 °F 19.6 °F 16.7 °F 59% 30.44 in 10.0 mi South 12.7 mph - N/A   Clear
1:55 PM 29.3 °F 19.6 °F 16.7 °F 59% 30.42 in 10.0 mi South 11.5 mph 16.1 mph N/A   Clear
2:15 PM 29.5 °F 19.9 °F 17.2 °F 60% 30.41 in 10.0 mi South 11.5 mph - N/A   Clear
2:35 PM 30.0 °F 20.5 °F 17.2 °F 59% 30.40 in 10.0 mi South 11.5 mph - N/A   Clear
2:55 PM 29.7 °F 21.3 °F 17.6 °F 61% 30.39 in 10.0 mi South 9.2 mph - N/A   Clear
3:15 PM 29.1 °F 20.0 °F 17.4 °F 62% 30.39 in 10.0 mi South 10.4 mph - N/A   Clear
3:35 PM 28.6 °F 19.3 °F 17.6 °F 64% 30.39 in 10.0 mi South 10.4 mph - N/A   Clear
3:55 PM 28.0 °F 19.3 °F 17.8 °F 65% 30.38 in 10.0 mi South 9.2 mph - N/A   Clear
4:15 PM 27.5 °F 18.0 °F 18.0 °F 67% 30.38 in 10.0 mi SSE 10.4 mph - N/A   Clear
4:35 PM 27.1 °F 18.9 °F 18.0 °F 68% 30.37 in 10.0 mi SSE 8.1 mph - N/A   Clear
4:55 PM 26.8 °F 17.7 °F 18.3 °F 70% 30.36 in 10.0 mi SSE 9.2 mph - N/A   Clear
5:15 PM 26.6 °F 16.8 °F 18.3 °F 71% 30.36 in 10.0 mi SSE 10.4 mph - N/A   Clear
5:35 PM 26.2 °F 17.8 °F 18.5 °F 73% 30.35 in 10.0 mi SSE 8.1 mph - N/A   Clear
5:55 PM 26.2 °F 16.4 °F 18.5 °F 73% 30.34 in 10.0 mi SSE 10.4 mph - N/A   Clear
6:15 PM 26.1 °F 16.8 °F 18.5 °F 73% 30.32 in 10.0 mi SSE 9.2 mph - N/A   Clear
6:35 PM 26.1 °F 16.8 °F 18.5 °F 73% 30.32 in 10.0 mi SE 9.2 mph - N/A   Clear
6:55 PM 26.2 °F 16.4 °F 18.3 °F 72% 30.32 in 10.0 mi SE 10.4 mph - N/A   Clear
7:15 PM 26.2 °F 17.1 °F 18.5 °F 73% 30.32 in 10.0 mi SE 9.2 mph - N/A   Clear
7:35 PM 26.2 °F 16.4 °F 18.5 °F 73% 30.31 in 10.0 mi SE 10.4 mph - N/A   Clear
7:55 PM 26.4 °F 16.6 °F 18.5 °F 72% 30.30 in 10.0 mi SSE 10.4 mph - N/A   Clear
8:15 PM 26.6 °F 15.7 °F 18.9 °F 73% 30.29 in 10.0 mi SSE 12.7 mph - N/A   Clear
8:35 PM 27.1 °F 15.9 °F 19.2 °F 72% 30.28 in 10.0 mi SSE 13.8 mph 19.6 mph N/A   Clear
8:55 PM 27.5 °F 16.8 °F 19.4 °F 72% 30.28 in 10.0 mi SSE 12.7 mph - N/A   Clear
9:15 PM 27.9 °F 16.8 °F 19.4 °F 71% 30.28 in 10.0 mi South 13.8 mph - N/A   Clear
9:35 PM 28.0 °F 17.0 °F 19.4 °F 70% 30.28 in 10.0 mi SSE 13.8 mph 18.4 mph N/A   Clear
9:55 PM 28.0 °F 17.5 °F 19.4 °F 70% 30.27 in 10.0 mi SSE 12.7 mph 17.3 mph N/A   Clear
10:15 PM 27.7 °F 18.8 °F 19.4 °F 71% 30.27 in 10.0 mi South 9.2 mph 16.1 mph N/A   Clear
10:35 PM 27.7 °F 18.2 °F 19.2 °F 71% 30.26 in 10.0 mi South 10.4 mph 17.3 mph N/A   Clear
10:55 PM 27.9 °F 18.4 °F 19.2 °F 70% 30.25 in 10.0 mi South 10.4 mph - N/A   Clear
11:15 PM 28.0 °F 19.3 °F 19.2 °F 70% 30.25 in 10.0 mi South 9.2 mph - N/A   Clear
11:35 PM 28.0 °F 18.1 °F 19.4 °F 70% 30.24 in 10.0 mi South 11.5 mph - N/A   Clear
11:55 PM 28.2 °F 18.9 °F 19.4 °F 70% 30.23 in 10.0 mi South 10.4 mph 16.1 mph N/A   Clear